| time (UTC) | temp F | wind direction | speed knots | gust knots | rain 1hr in | rain 24hr in | rain mn in | humidity % | barometer mb |
| 20260504194536 | 73 | 235 | 4.3 | 9.6 | 0.00 | 0.00 | 0.00 | 30 | 1009.5 |
| 20260504193516 | 73 | 240 | 5.2 | 9.6 | 0.00 | 0.00 | 0.00 | 30 | 1009.5 |
| 20260504192536 | 73 | 256 | 4.3 | 7.0 | 0.00 | 0.00 | 0.00 | 31 | 1009.6 |
| 20260504191516 | 73 | 254 | 4.3 | 7.0 | 0.00 | 0.00 | 0.00 | 30 | 1009.8 |
| 20260504190517 | 73 | 249 | 3.5 | 7.8 | 0.00 | 0.00 | 0.00 | 31 | 1009.8 |
| 20260504185537 | 73 | 241 | 3.5 | 7.0 | 0.00 | 0.00 | 0.00 | 30 | 1010.0 |
| 20260504184517 | 73 | 256 | 4.3 | 11.3 | 0.00 | 0.00 | 0.00 | 32 | 1010.1 |
| 20260504183517 | 72 | 257 | 4.3 | 8.7 | 0.00 | 0.00 | 0.00 | 33 | 1010.3 |
| 20260504182517 | 71 | 242 | 4.3 | 7.8 | 0.00 | 0.00 | 0.00 | 32 | 1010.4 |
| 20260504181517 | 72 | 220 | 5.2 | 11.3 | 0.00 | 0.00 | 0.00 | 30 | 1010.6 |
| 20260504180517 | 72 | 261 | 3.5 | 8.7 | 0.00 | 0.00 | 0.00 | 33 | 1010.8 |
| 20260504175518 | 71 | 271 | 2.6 | 7.0 | 0.00 | 0.00 | 0.00 | 34 | 1010.8 |
| 20260504174518 | 70 | 250 | 4.3 | 7.8 | 0.00 | 0.00 | 0.00 | 32 | 1010.9 |
| 20260504173558 | 70 | 256 | 5.2 | 10.4 | 0.00 | 0.00 | 0.00 | 32 | 1011.0 |
| 20260504172535 | 70 | 261 | 3.5 | 8.7 | 0.00 | 0.00 | 0.00 | 33 | 1011.2 |
| 20260504171515 | 70 | 251 | 5.2 | 8.7 | 0.00 | 0.00 | 0.00 | 33 | 1011.3 |
| 20260504170535 | 70 | 230 | 3.5 | 7.8 | 0.00 | 0.00 | 0.00 | 34 | 1011.4 |
| 20260504150537 | 66 | 253 | 5.2 | 13.9 | 0.00 | 0.00 | 0.00 | 34 | 1012.7 |
| 20260504140536 | 64 | 257 | 4.3 | 8.7 | 0.00 | 0.00 | 0.00 | 41 | 1012.9 |
| 20260504130516 | 60 | 267 | 1.7 | 6.1 | 0.00 | 0.00 | 0.00 | 56 | 1013.7 |
| 20260504110515 | 43 | 68 | 1.7 | 2.6 | 0.00 | 0.00 | 0.00 | 71 | 1014.2 |
| 20260504100517 | 40 | 79 | 0.9 | 1.7 | 0.00 | 0.00 | 0.00 | 77 | 1014.0 |
| 20260504081518 | 42 | 6 | 0.9 | 1.7 | 0.00 | 0.01 | 0.00 | 72 | 1013.7 |
| 20260504080515 | 42 | 9 | 0.9 | 1.7 | 0.00 | 0.01 | 0.00 | 72 | 1013.7 |
| 20260504050516 | 45 | 20 | 1.7 | 3.5 | 0.00 | 0.01 | 0.00 | 62 | 1013.3 |
| 20260504045536 | 45 | 32 | 1.7 | 3.5 | 0.00 | 0.01 | 0.00 | 62 | 1013.3 |
| 20260504044536 | 45 | 24 | 1.7 | 3.5 | 0.00 | 0.01 | 0.00 | 62 | 1013.2 |
| 20260504043516 | 45 | 35 | 0.9 | 3.5 | 0.00 | 0.01 | 0.00 | 64 | 1013.2 |
| 20260504042516 | 45 | 28 | 1.7 | 4.3 | 0.00 | 0.01 | 0.00 | 64 | 1013.2 |
| 20260504041537 | 45 | 14 | 1.7 | 3.5 | 0.00 | 0.01 | 0.00 | 65 | 1013.0 |
| 20260504040537 | 45 | 16 | 2.6 | 3.5 | 0.00 | 0.01 | 0.00 | 61 | 1013.0 |
| 20260504035517 | 45 | 14 | 0.9 | 3.5 | 0.00 | 0.01 | 0.01 | 60 | 1012.8 |
| 20260504034517 | 45 | 21 | 1.7 | 2.6 | 0.00 | 0.01 | 0.01 | 62 | 1012.8 |
| 20260504033537 | 46 | 24 | 1.7 | 3.5 | 0.00 | 0.01 | 0.01 | 59 | 1012.7 |
| 20260504032517 | 46 | 53 | 0.9 | 2.6 | 0.00 | 0.01 | 0.01 | 58 | 1012.7 |
| 20260504031518 | 46 | 13 | 0.9 | 2.6 | 0.00 | 0.01 | 0.01 | 59 | 1012.7 |
| 20260504030515 | 46 | 46 | 0.9 | 1.7 | 0.00 | 0.01 | 0.01 | 60 | 1012.6 |
| 20260504025518 | 46 | 59 | 0.9 | 2.6 | 0.00 | 0.01 | 0.01 | 59 | 1012.7 |
| 20260504024618 | 46 | 67 | 0.9 | 1.7 | 0.00 | 0.01 | 0.01 | 58 | 1012.6 |
| 20260504023515 | 47 | 41 | 0.9 | 1.7 | 0.00 | 0.01 | 0.01 | 56 | 1012.6 |
| 20260504022535 | 47 | 79 | 0.9 | 2.6 | 0.00 | 0.01 | 0.01 | 55 | 1012.6 |
| 20260504021516 | 47 | 44 | 0.9 | 2.6 | 0.00 | 0.01 | 0.01 | 55 | 1012.6 |
| 20260504020516 | 47 | 40 | 0.9 | 1.7 | 0.00 | 0.01 | 0.01 | 53 | 1012.6 |
| 20260504015516 | 48 | 6 | 0.9 | 1.7 | 0.00 | 0.01 | 0.01 | 53 | 1012.6 |
| 20260504014516 | 48 | 329 | 0.0 | 1.7 | 0.00 | 0.01 | 0.01 | 52 | 1012.5 |
| 20260504013516 | 48 | 3 | 0.9 | 1.7 | 0.00 | 0.01 | 0.01 | 52 | 1012.4 |
| 20260504012516 | 49 | 1 | 0.9 | 2.6 | 0.00 | 0.01 | 0.01 | 51 | 1012.3 |
| 20260504011556 | 49 | 4 | 0.9 | 1.7 | 0.00 | 0.01 | 0.01 | 50 | 1012.1 |
| 20260504010517 | 50 | 30 | 0.9 | 1.7 | 0.00 | 0.01 | 0.01 | 50 | 1012.0 |
| 20260504005517 | 50 | 26 | 0.9 | 2.6 | 0.00 | 0.01 | 0.01 | 48 | 1012.0 |
| 20260504004517 | 51 | 62 | 0.9 | 2.6 | 0.00 | 0.01 | 0.01 | 49 | 1011.9 |
| 20260504003517 | 53 | 58 | 0.9 | 2.6 | 0.00 | 0.01 | 0.01 | 43 | 1011.7 |
| 20260504002537 | 54 | 5 | 0.9 | 1.7 | 0.00 | 0.01 | 0.01 | 40 | 1011.5 |
| 20260504001518 | 55 | 356 | 0.9 | 1.7 | 0.00 | 0.01 | 0.01 | 39 | 1011.3 |
| 20260504000518 | 56 | 357 | 0.9 | 1.7 | 0.00 | 0.01 | 0.01 | 37 | 1011.2 |
| 20260503235515 | 57 | 7 | 0.9 | 1.7 | 0.00 | 0.01 | 0.01 | 36 | 1011.1 |
| 20260503234515 | 58 | 349 | 0.9 | 2.6 | 0.00 | 0.01 | 0.01 | 35 | 1011.1 |
| 20260503233515 | 59 | 284 | 0.9 | 3.5 | 0.00 | 0.01 | 0.01 | 33 | 1011.0 |
| 20260503232515 | 59 | 272 | 1.7 | 4.3 | 0.00 | 0.01 | 0.01 | 32 | 1010.8 |
| 20260503231516 | 59 | 265 | 1.7 | 3.5 | 0.00 | 0.01 | 0.01 | 31 | 1010.8 |
| 20260503230515 | 60 | 248 | 2.6 | 7.0 | 0.00 | 0.01 | 0.01 | 29 | 1010.8 |
| 20260503225516 | 60 | 256 | 1.7 | 5.2 | 0.00 | 0.01 | 0.01 | 29 | 1010.6 |
| 20260503224516 | 60 | 264 | 1.7 | 4.3 | 0.00 | 0.01 | 0.01 | 31 | 1010.7 |
| 20260503223536 | 60 | 258 | 1.7 | 5.2 | 0.00 | 0.01 | 0.01 | 29 | 1010.7 |
| 20260503222517 | 61 | 256 | 2.6 | 6.1 | 0.00 | 0.01 | 0.01 | 29 | 1010.6 |
| 20260503221516 | 61 | 253 | 2.6 | 4.3 | 0.00 | 0.01 | 0.01 | 29 | 1010.6 |
| 20260503220537 | 61 | 264 | 2.6 | 4.3 | 0.00 | 0.01 | 0.01 | 30 | 1010.6 |
| 20260503215517 | 61 | 249 | 3.5 | 7.8 | 0.00 | 0.01 | 0.01 | 28 | 1010.6 |
| 20260503214517 | 62 | 247 | 3.5 | 7.8 | 0.00 | 0.01 | 0.01 | 29 | 1010.6 |
| 20260503213517 | 62 | 273 | 1.7 | 4.3 | 0.00 | 0.01 | 0.01 | 30 | 1010.6 |
| 20260503212535 | 62 | 306 | 1.7 | 3.5 | 0.00 | 0.01 | 0.01 | 36 | 1010.6 |
| 20260503211516 | 62 | 269 | 2.6 | 6.1 | 0.00 | 0.01 | 0.01 | 33 | 1010.6 |
| 20260503210516 | 62 | 266 | 3.5 | 11.3 | 0.00 | 0.01 | 0.01 | 32 | 1010.6 |
| 20260503205516 | 61 | 269 | 3.5 | 7.0 | 0.00 | 0.01 | 0.01 | 35 | 1010.6 |
| 20260503204515 | 59 | 284 | 1.7 | 7.0 | 0.00 | 0.01 | 0.01 | 33 | 1010.7 |
| 20260503203515 | 60 | 255 | 3.5 | 9.6 | 0.00 | 0.01 | 0.01 | 34 | 1010.7 |
| 20260503202515 | 62 | 278 | 2.6 | 6.1 | 0.00 | 0.01 | 0.01 | 33 | 1010.7 |
| 20260503201516 | 62 | 251 | 2.6 | 7.0 | 0.00 | 0.01 | 0.01 | 31 | 1010.7 |
| 20260503200516 | 61 | 259 | 2.6 | 7.0 | 0.00 | 0.01 | 0.01 | 33 | 1010.9 |
| 20260503195516 | 62 | 257 | 2.6 | 6.1 | 0.00 | 0.01 | 0.01 | 34 | 1010.9 |